Location: A�t �Alizem
(31.2076°N, 8.7872°W)
Time: 13:43:04
(UTC+00:00)

deb Explorer IX - Pass Details

Date: 25 June 2021
Orbit: 542 x 1234 km, 38.9° (Epoch: 23 July)

Event Time Altitude Azimuth Distance (km) Brightness Sun altitude
Exits shadow 02:09:53 22° 313° (NW) 1,625 ? -31.1°
Maximum altitude 02:12:49 39° 8° (N) 1,225 ? -30.9°
Drops below altitude 10° 02:18:45 10° 76° (ENE) 2,687 ? -30.3°
Sets 02:21:50 0° 84° (E) 3,755 ? -30.0°
